Tracking 22441 objects as of 1-Mar-2021
HD Live streaming from Space Station
objects crossing your sky now

MICROMAS


MICROMAS is no longer on orbit
MICROMAS is classified as:


NORAD ID: 40457
Int'l Code: 1998-067GA
Perigee: N/A
Apogee: N/A
Inclination: N/A
Period: N/A
Semi major axis: N/A
RCS: N/A
Launch date: November 20, 1998
Source: United States (US)
Launch site: TYURATAM MISSILE AND SPACE COMPLEX (TTMTR)
Decay date: 2015-08-01
aabbcc
Your satellite tracking list
Your tracking list is empty




NASA's NSSDC Master Catalog

Two Line Element Set (TLE):
1 40457U 98067GA  15213.38588329  .08885032  12472-4  72013-3 0  9998
2 40457 051.6142 195.6182 0009646 310.7124 049.3640 16.38908268 33335
Source of the keplerian elements: AFSPC